sat.trackr.live / text

‹ back to catalog

STARLINK-31940

NORAD 59873 · 2024-098R

PAYLOAD ACTIVE UNKNOWN

§ Identity

Operator
Country
US
Launch date
2024-05-24
Launch site
AFETR
Launch vehicle
Mass (kg)
RCS (m²)

Purposes: comms

External: N2YO · Heavens-Above · Gunter

§ Orbital elements

Epoch: 2026-09-21T15:34:53.606784Z

Period
94.27 min
Inclination
43.0055°
Eccentricity
0.0001686
Mean motion
15.27564970 rev/d
Perigee alt
481.9 km
Apogee alt
484.3 km
Semi-major
6,861.2 km
B*
-1.5725e-5
RAAN
243.6999°
Arg perigee
261.9526°
Mean anomaly
98.1134°
Rev number
13,190

§ Raw data

STARLINK-319401 59873U 24098R   26264.64923156 -.00000695  00000+0 -15725-4 0  99962 59873  43.0055 243.6999 0001686 261.9526  98.1134 15.27564970131901

JSON: /api/v1/satellites/59873 · /tle

For live sub-satellite position, see the globe view (requires WebGL).

§ Visibility from observer

Set your observer location to see the next 7 days of passes ≥ 10°. The values pass through the URL so the page stays shareable.

No JS? Fill the form by hand. The geolocation button needs JavaScript.